N223FC KISM-

Flight info

Callsign N223FC
Flight time N/A
Altitude VFR
Route VFR SW
Aircraft PA28/L-DOV/C

Departure

Time 2026-04-22 00:18
Airport Kissimmee Gateway Airport (KISM)

Arrival

Time N/A
Airport -
Time Latitude Longitude Altitude Speed Heading
2026-04-22 00:05 28.29334 -81.44186 98 ft 0 kts 345°
2026-04-22 00:07 28.29359 -81.44186 91 ft 12 kts 358°
2026-04-22 00:07 28.29454 -81.44208 87 ft 13 kts 355°
2026-04-22 00:07 28.29514 -81.44271 87 ft 13 kts 269°
2026-04-22 00:07 28.29537 -81.44308 87 ft 0 kts 348°
2026-04-22 00:08 28.29537 -81.44307 87 ft 0 kts 348°
2026-04-22 00:09 28.29536 -81.44307 87 ft 0 kts 348°
2026-04-22 00:11 28.29535 -81.44307 87 ft 0 kts 347°
2026-04-22 00:14 28.29534 -81.44307 87 ft 0 kts 347°
2026-04-22 00:15 28.29544 -81.44306 87 ft 4 kts 20°
2026-04-22 00:15 28.29564 -81.44272 88 ft 5 kts 64°
2026-04-22 00:15 28.29575 -81.44248 88 ft 0 kts 60°
2026-04-22 00:16 28.29575 -81.44249 88 ft 0 kts 60°
2026-04-22 00:16 28.29575 -81.44248 88 ft 1 kts 58°
2026-04-22 00:16 28.29598 -81.44205 89 ft 9 kts 60°
2026-04-22 00:16 28.29600 -81.44149 90 ft 8 kts 147°
2026-04-22 00:17 28.29495 -81.44074 87 ft 40 kts 149°
2026-04-22 00:17 28.29145 -81.43835 155 ft 70 kts 139°
2026-04-22 00:17 28.28694 -81.43516 312 ft 83 kts 141°
2026-04-22 00:17 28.28174 -81.43163 510 ft 92 kts 150°
2026-04-22 00:18 28.27492 -81.43083 683 ft 109 kts 179°
2026-04-22 00:18 28.26762 -81.43475 842 ft 125 kts 210°
2026-04-22 00:18 28.26196 -81.44248 994 ft 131 kts 230°
2026-04-22 00:18 28.25693 -81.45146 1082 ft 134 kts 234°
2026-04-22 00:19 28.25255 -81.46015 1150 ft 125 kts 236°
2026-04-22 00:19 28.24832 -81.46879 1211 ft 124 kts 238°
2026-04-22 00:19 28.24497 -81.47782 1272 ft 126 kts 250°
2026-04-22 00:19 28.24330 -81.48751 1306 ft 125 kts 262°
2026-04-22 00:20 28.24253 -81.49675 1325 ft 107 kts 265°
2026-04-22 00:20 28.24222 -81.50497 1236 ft 104 kts 269°
2026-04-22 00:20 28.24222 -81.51329 1192 ft 105 kts 271°
2026-04-22 00:20 28.24239 -81.52180 1134 ft 111 kts 273°
2026-04-22 00:21 28.24263 -81.53054 1074 ft 110 kts 273°
2026-04-22 00:21 28.24302 -81.53905 990 ft 105 kts 274°
2026-04-22 00:21 28.24372 -81.54723 942 ft 103 kts 277°
2026-04-22 00:21 28.24459 -81.55526 906 ft 105 kts 277°
2026-04-22 00:22 28.24534 -81.56364 869 ft 106 kts 276°
2026-04-22 00:22 28.24601 -81.57186 891 ft 105 kts 277°
2026-04-22 00:22 28.24675 -81.58026 895 ft 109 kts 279°
2026-04-22 00:22 28.24770 -81.58867 935 ft 107 kts 279°
2026-04-22 00:23 28.24900 -81.59734 1002 ft 115 kts 279°
2026-04-22 00:23 28.25073 -81.60633 1066 ft 115 kts 282°
2026-04-22 00:23 28.25243 -81.61508 1205 ft 113 kts 284°
2026-04-22 00:23 28.25408 -81.62368 1335 ft 107 kts 286°
2026-04-22 00:24 28.25614 -81.63296 1116 ft 131 kts 284°
2026-04-22 00:24 28.25806 -81.64258 1047 ft 121 kts 284°
2026-04-22 00:24 28.25981 -81.65144 999 ft 112 kts 288°
2026-04-22 00:24 28.26151 -81.65978 992 ft 108 kts 276°
2026-04-22 00:25 28.26189 -81.66800 995 ft 102 kts 269°
2026-04-22 00:25 28.26188 -81.67569 981 ft 100 kts 266°
2026-04-22 00:25 28.26183 -81.68400 1028 ft 109 kts 269°
2026-04-22 00:25 28.26174 -81.69273 1122 ft 115 kts 265°
2026-04-22 00:26 28.26125 -81.70207 1154 ft 123 kts 264°
2026-04-22 00:26 28.26024 -81.71178 1182 ft 123 kts 261°
2026-04-22 00:26 28.25913 -81.72114 1288 ft 118 kts 256°
2026-04-22 00:26 28.25787 -81.73059 1276 ft 127 kts 257°
2026-04-22 00:27 28.25638 -81.73997 1215 ft 117 kts 255°
2026-04-22 00:27 28.25471 -81.74920 1228 ft 122 kts 256°
2026-04-22 00:27 28.25261 -81.75862 1249 ft 127 kts 249°
2026-04-22 00:27 28.24978 -81.76827 1230 ft 131 kts 247°
2026-04-22 00:28 28.24641 -81.77753 1209 ft 123 kts 243°
2026-04-22 00:28 28.24297 -81.78625 1241 ft 122 kts 243°
2026-04-22 00:28 28.23941 -81.79490 1280 ft 120 kts 239°
2026-04-22 00:28 28.23451 -81.80218 1254 ft 118 kts 221°
2026-04-22 00:29 28.22851 -81.80866 1187 ft 117 kts 216°
2026-04-22 00:29 28.22212 -81.81420 1220 ft 112 kts 203°
2026-04-22 00:29 28.21549 -81.81859 1195 ft 110 kts 192°
2026-04-22 00:29 28.20845 -81.82089 1178 ft 106 kts 183°
2026-04-22 00:30 28.20112 -81.82239 1168 ft 109 kts 174°
2026-04-22 00:30 28.19333 -81.82333 1121 ft 115 kts 170°
2026-04-22 00:30 28.18564 -81.82374 1124 ft 108 kts 168°
2026-04-22 00:30 28.17836 -81.82354 1118 ft 99 kts 165°
2026-04-22 00:31 28.17166 -81.82306 1182 ft 98 kts 163°
2026-04-22 00:31 28.16460 -81.82223 1234 ft 106 kts 161°
2026-04-22 00:31 28.15723 -81.82158 1342 ft 106 kts 166°
2026-04-22 00:31 28.14980 -81.82105 1403 ft 110 kts 168°
2026-04-22 00:32 28.14221 -81.82110 1495 ft 106 kts 174°
2026-04-22 00:32 28.13481 -81.82252 1574 ft 113 kts 187°
2026-04-22 00:32 28.12755 -81.82681 1636 ft 124 kts 210°
2026-04-22 00:32 28.12127 -81.83384 1736 ft 128 kts 224°
2026-04-22 00:33 28.11570 -81.84207 1169 ft 133 kts 234°
2026-04-22 00:33 28.11157 -81.85024 1190 ft 119 kts 240°
2026-04-22 00:33 28.10808 -81.85887 1241 ft 121 kts 245°
2026-04-22 00:33 28.10512 -81.86778 1281 ft 122 kts 249°
2026-04-22 00:34 28.10258 -81.87696 1218 ft 125 kts 249°
2026-04-22 00:34 28.09983 -81.88629 1199 ft 125 kts 249°
2026-04-22 00:34 28.09697 -81.89555 1149 ft 125 kts 247°
2026-04-22 00:34 28.09406 -81.90489 1175 ft 122 kts 245°
2026-04-22 00:35 28.09129 -81.91395 1201 ft 120 kts 245°
2026-04-22 00:35 28.08847 -81.92243 1172 ft 112 kts 243°
2026-04-22 00:35 28.08542 -81.93057 1258 ft 112 kts 243°
2026-04-22 00:35 28.08243 -81.93901 1333 ft 119 kts 243°
2026-04-22 00:36 28.07927 -81.94795 1343 ft 127 kts 242°
2026-04-22 00:36 28.07588 -81.95708 1281 ft 126 kts 244°
2026-04-22 00:36 28.07257 -81.96583 1239 ft 117 kts 245°
2026-04-22 00:36 28.06964 -81.97429 1211 ft 116 kts 243°
2026-04-22 00:37 28.06674 -81.98278 1197 ft 116 kts 241°
2026-04-22 00:37 28.06368 -81.99128 1187 ft 116 kts 242°
2026-04-22 00:37 28.06040 -81.99952 1216 ft 117 kts 241°
2026-04-22 00:37 28.05678 -82.00777 1211 ft 114 kts 242°
2026-04-22 00:38 28.05246 -82.01508 1171 ft 114 kts 226°
2026-04-22 00:38 28.04673 -82.02131 1107 ft 114 kts 208°
2026-04-22 00:38 28.04238 -82.02474 1063 ft 114 kts 198°
2026-04-22 00:38 28.03352 -82.03014 942 ft 120 kts 240°
2026-04-22 00:39 28.03228 -82.03599 882 ft 114 kts 259°
2026-04-22 00:39 28.03147 -82.04452 864 ft 99 kts 263°
2026-04-22 00:39 28.02953 -82.05338 855 ft 85 kts 207°
2026-04-22 00:39 28.02399 -82.05534 860 ft 87 kts 188°
2026-04-22 00:40 28.01793 -82.05670 877 ft 90 kts 179°
2026-04-22 00:40 28.01394 -82.05745 859 ft 85 kts 175°
2026-04-22 00:40 28.00826 -82.05824 852 ft 79 kts 174°
2026-04-22 00:40 28.00271 -82.05847 837 ft 82 kts 166°
2026-04-22 00:41 27.99714 -82.05750 758 ft 77 kts 144°
2026-04-22 00:41 27.99354 -82.05378 629 ft 68 kts 115°
2026-04-22 00:41 27.99181 -82.04877 490 ft 67 kts 105°
2026-04-22 00:41 27.99089 -82.04362 442 ft 64 kts 96°
2026-04-22 00:42 27.99027 -82.03812 572 ft 75 kts 93°
2026-04-22 00:42 27.99004 -82.03234 872 ft 72 kts 90°
2026-04-22 00:42 27.98966 -82.02641 1101 ft 75 kts 93°
2026-04-22 00:42 27.98927 -82.02080 1353 ft 73 kts 89°
2026-04-22 00:43 27.98998 -82.01492 1551 ft 80 kts 78°
2026-04-22 00:43 27.99159 -82.00884 1712 ft 87 kts 75°
2026-04-22 00:43 27.99332 -82.00184 1661 ft 98 kts 79°
2026-04-22 00:43 27.99430 -81.99395 1621 ft 105 kts 84°
2026-04-22 00:44 27.99495 -81.98563 1657 ft 108 kts 85°
2026-04-22 00:44 27.99534 -81.97749 1807 ft 99 kts 87°
2026-04-22 00:44 27.99578 -81.96974 1890 ft 101 kts 87°
2026-04-22 00:44 27.99622 -81.96151 1899 ft 104 kts 87°
2026-04-22 00:45 27.99661 -81.95364 2021 ft 99 kts 87°
2026-04-22 00:45 27.99682 -81.94582 2033 ft 101 kts 88°
2026-04-22 00:45 27.99679 -81.93788 2068 ft 100 kts 88°
2026-04-22 00:45 27.99685 -81.93014 2128 ft 100 kts 88°
2026-04-22 00:46 27.99688 -81.92224 2159 ft 102 kts 89°
2026-04-22 00:46 27.99664 -81.91421 2182 ft 102 kts 89°
2026-04-22 00:46 27.99622 -81.90687 2137 ft 84 kts 91°
2026-04-22 00:46 27.99565 -81.90027 2109 ft 88 kts 93°
2026-04-22 00:47 27.99509 -81.89324 2108 ft 91 kts 89°
2026-04-22 00:47 27.99538 -81.88598 2101 ft 94 kts 86°
2026-04-22 00:47 27.99574 -81.87845 2105 ft 98 kts 86°
2026-04-22 00:47 27.99631 -81.87068 2089 ft 101 kts 84°
2026-04-22 00:48 27.99730 -81.86295 2042 ft 100 kts 82°
2026-04-22 00:48 27.99819 -81.85517 1995 ft 100 kts 84°
2026-04-22 00:48 27.99896 -81.84743 1965 ft 97 kts 84°
2026-04-22 00:48 27.99975 -81.83983 1898 ft 97 kts 85°
2026-04-22 00:49 28.00047 -81.83206 1783 ft 102 kts 85°
2026-04-22 00:49 28.00190 -81.82407 1657 ft 105 kts 73°
2026-04-22 00:49 28.00542 -81.81681 1574 ft 108 kts 59°
2026-04-22 00:49 28.01109 -81.81071 1504 ft 113 kts 42°
2026-04-22 00:50 28.01773 -81.80645 1619 ft 106 kts 35°
2026-04-22 00:50 28.02432 -81.80293 1654 ft 105 kts 33°
2026-04-22 00:50 28.03094 -81.79979 1683 ft 106 kts 31°
2026-04-22 00:50 28.03770 -81.79662 1687 ft 106 kts 33°
2026-04-22 00:51 28.04440 -81.79330 1745 ft 103 kts 37°
2026-04-22 00:51 28.05077 -81.78986 1827 ft 100 kts 36°
2026-04-22 00:51 28.05702 -81.78648 1870 ft 100 kts 36°
2026-04-22 00:51 28.06321 -81.78249 1827 ft 104 kts 41°
2026-04-22 00:52 28.06930 -81.77807 1863 ft 104 kts 40°
2026-04-22 00:52 28.07536 -81.77349 1878 ft 106 kts 41°
2026-04-22 00:52 28.08147 -81.76890 1929 ft 102 kts 44°
2026-04-22 00:52 28.08701 -81.76398 1916 ft 101 kts 47°
2026-04-22 00:53 28.09229 -81.75879 1891 ft 101 kts 49°
2026-04-22 00:53 28.09742 -81.75363 1920 ft 101 kts 49°
2026-04-22 00:53 28.10292 -81.74832 1916 ft 105 kts 50°
2026-04-22 00:53 28.10815 -81.74269 1985 ft 104 kts 49°
2026-04-22 00:54 28.11424 -81.73769 1944 ft 111 kts 35°
2026-04-22 00:54 28.12168 -81.73522 1913 ft 114 kts 20°
2026-04-22 00:54 28.12984 -81.73437 1825 ft 117 kts 12°
2026-04-22 00:54 28.13798 -81.73449 1734 ft 119 kts
2026-04-22 00:55 28.14592 -81.73486 1563 ft 104 kts
2026-04-22 00:55 28.15237 -81.73548 1449 ft 87 kts
2026-04-22 00:55 28.16508 -81.73814 1303 ft 99 kts 354°
2026-04-22 00:56 28.17132 -81.74251 1267 ft 115 kts 320°
2026-04-22 00:56 28.17414 -81.75159 1172 ft 130 kts 280°
2026-04-22 00:56 28.17427 -81.76160 1115 ft 126 kts 262°
2026-04-22 00:56 28.17216 -81.77094 1049 ft 122 kts 248°
2026-04-22 00:57 28.16950 -81.77983 1148 ft 122 kts 249°
2026-04-22 00:57 28.16661 -81.78935 1196 ft 131 kts 249°
2026-04-22 00:57 28.16363 -81.79928 1210 ft 132 kts 248°
2026-04-22 00:57 28.16087 -81.80896 1194 ft 128 kts 249°
2026-04-22 00:58 28.15847 -81.81865 1163 ft 126 kts 252°
2026-04-22 00:58 28.15422 -81.82690 1171 ft 122 kts 208°
2026-04-22 00:58 28.14672 -81.83089 1164 ft 119 kts 193°
2026-04-22 00:58 28.13893 -81.83348 1172 ft 110 kts 187°
2026-04-22 00:59 28.13163 -81.83540 1138 ft 109 kts 182°
2026-04-22 00:59 28.12409 -81.83718 1179 ft 115 kts 182°
2026-04-22 00:59 28.11624 -81.84011 1210 ft 123 kts 205°
2026-04-22 00:59 28.11122 -81.84793 1222 ft 127 kts 246°
2026-04-22 01:00 28.10832 -81.85753 1174 ft 129 kts 250°
2026-04-22 01:00 28.10570 -81.86720 1223 ft 128 kts 250°
2026-04-22 01:00 28.10318 -81.87691 1250 ft 129 kts 250°
2026-04-22 01:00 28.10064 -81.88661 1218 ft 127 kts 252°
2026-04-22 01:01 28.09815 -81.89602 1117 ft 123 kts 249°
2026-04-22 01:01 28.09566 -81.90397 858 ft 98 kts 248°
2026-04-22 01:01 28.09398 -81.91223 855 ft 112 kts 261°
2026-04-22 01:01 28.09262 -81.92062 1107 ft 110 kts 258°
2026-04-22 01:02 28.09116 -81.92940 1275 ft 116 kts 257°
2026-04-22 01:02 28.08954 -81.93859 1275 ft 122 kts 259°
2026-04-22 01:02 28.08777 -81.94810 1300 ft 127 kts 257°
2026-04-22 01:02 28.08515 -81.95786 1274 ft 134 kts 249°
2026-04-22 01:03 28.08149 -81.96738 1192 ft 122 kts 236°
2026-04-22 01:03 28.07687 -81.97585 1216 ft 129 kts 231°
2026-04-22 01:03 28.07125 -81.98389 1280 ft 132 kts 225°
2026-04-22 01:03 28.06533 -81.99160 1279 ft 127 kts 222°
2026-04-22 01:04 28.05956 -81.99916 1240 ft 127 kts 220°
2026-04-22 01:04 28.05322 -82.00617 1194 ft 129 kts 218°
2026-04-22 01:04 28.04671 -82.01282 1233 ft 124 kts 218°
2026-04-22 01:04 28.03995 -82.01842 1234 ft 115 kts 186°
2026-04-22 01:05 28.03220 -82.01977 1219 ft 113 kts 172°
2026-04-22 01:05 28.02465 -82.02012 1079 ft 110 kts 169°
2026-04-22 01:05 28.01704 -82.02019 1106 ft 103 kts 168°
2026-04-22 01:05 28.00971 -82.02038 1117 ft 113 kts 187°
2026-04-22 01:06 28.00519 -82.02820 952 ft 129 kts 264°
2026-04-22 01:06 28.00412 -82.03770 853 ft 115 kts 267°
2026-04-22 01:06 28.00150 -82.04590 873 ft 108 kts 198°
2026-04-22 01:06 27.99505 -82.04692 814 ft 81 kts 157°
2026-04-22 01:07 27.99163 -82.04308 829 ft 72 kts 101°
2026-04-22 01:07 27.99064 -82.03709 703 ft 81 kts 92°
2026-04-22 01:07 27.99050 -82.03062 561 ft 83 kts 87°
2026-04-22 01:07 27.99048 -82.02420 363 ft 78 kts 92°
2026-04-22 01:08 27.99041 -82.01850 181 ft 61 kts 90°
2026-04-22 01:08 27.99040 -82.01458 139 ft 39 kts 87°
2026-04-22 01:08 27.99040 -82.01231 139 ft 20 kts 90°
2026-04-22 01:08 27.99036 -82.01090 140 ft 26 kts 89°
2026-04-22 01:09 27.99040 -82.00869 145 ft 21 kts 89°
2026-04-22 01:09 27.99022 -82.00776 145 ft 8 kts 152°
2026-04-22 01:09 27.98862 -82.00757 141 ft 33 kts 176°
2026-04-22 01:09 27.98756 -82.00749 140 ft 22 kts 160°
2026-04-22 01:10 27.98652 -82.00871 139 ft 28 kts 265°